This demonstration page uses our WeatherBlox Daily Observations layout. Learn more.

Left ArrowRight Arrow

Hourly Observations for September 13, 2022

Temp ( °F °C ) Dew Point ( °F °C ) Humidity (%) Winds ( mph kmh ) Pressure ( in mb ) Visibility ( mi km ) Precip ( " mm )
12:53 am 00:53 Mostly Clear 77 25 68 20 74 74 SSE 6 9 30.02 1017 10 16 0.00 0.00
1:53 am 01:53 Clear 75 23.9 68 20 79 79 ESE 9 15 30.00 1016 10 16 0.00 0.00
2:53 am 02:53 Clear 76 24.4 68 20 77 77 ESE 8 13 29.98 1015 10 16 0.00 0.00
3:53 am 03:53 Clear 75 23.9 68 20 79 79 ENE 8 13 29.97 1015 10 16 0.00 0.00
4:53 am 04:53 Clear 75 23.9 67 19.4 76 76 E 5 7 29.97 1015 10 16 0.00 0.00
5:53 am 05:53 Clear 74 23.3 67 19.4 79 79 Calm 29.99 1016 10 16 0.00 0.00
6:53 am 06:53 Sunny 76 24.4 68 20 77 77 SE 7 11 30.01 1016 10 16 0.00 0.00
7:53 am 07:53 Sunny 79 26.1 71 21.7 77 77 SE 6 9 30.01 1016 10 16 0.00 0.00
8:53 am 08:53 Sunny 82 27.8 70 21.1 67 67 SE 3 6 30.02 1017 10 16 0.00 0.00
9:53 am 09:53 Mostly Cloudy 84 28.9 69 20.6 61 61 WSW 8 13 30.02 1017 10 16 0.00 0.00
10:53 am 10:53 Partly Cloudy 83 28.3 70 21.1 65 65 SW 8 13 30.02 1017 10 16 0.00 0.00
11:53 am 11:53 Partly Cloudy 82 27.8 71 21.7 69 69 W 9 15 30.01 1016 10 16 0.00 0.00
12:53 pm 12:53 Mostly Cloudy 82 27.8 72 22.2 72 72 W 8 13 30.00 1016 10 16 0.00 0.00
1:53 pm 13:53 Partly Cloudy 83 28.3 71 21.7 67 67 WSW 8 13 29.97 1015 10 16 0.00 0.00
2:53 pm 14:53 Mostly Cloudy 83 28.3 69 20.6 63 63 VRB 5 7 29.95 1014 10 16 0.00 0.00
3:53 pm 15:53 Cloudy 83 28.3 69 20.6 63 63 SSW 9 15 29.93 1014 10 16 0.00 0.00
4:53 pm 16:53 Mostly Cloudy 84 28.9 71 21.7 65 65 SSE 13 20 29.93 1013 10 16 0.00 0.00
5:53 pm 17:53 Mostly Cloudy 81 27.2 70 21.1 69 69 S 12 19 29.93 1014 10 16 0.00 0.00
6:53 pm 18:53 Cloudy 81 27.2 70 21.1 69 69 SSE 12 19 29.95 1014 10 16 0.00 0.00
7:53 pm 19:53 Clear 80 26.7 71 21.7 74 74 SSE 12 19 29.97 1015 10 16 0.00 0.00
8:53 pm 20:53 Clear 79 26.1 71 21.7 77 77 SSE 8 13 29.98 1015 10 16 0.00 0.00
9:53 pm 21:53 Mostly Cloudy 79 26.1 71 21.7 77 77 SSE 3 6 29.99 1016 10 16 0.00 0.00
10:53 pm 22:53 Partly Cloudy 79 26.1 71 21.7 77 77 SW 7 11 29.98 1015 10 16 0.00 0.00
11:53 pm 23:53 Partly Cloudy 79 26.1 64 17.8 60 60 NNE 7 11 29.98 1015 10 16 0.00 0.00

Powered by AerisWeather